Погода Кочубей

Погода Кочубей : погода сейчас, прогноз погоды и архив. Всё, что Вы хотите узнать о погоде Кочубей!

Поиск расширенной информации на нашем сайте:

Другие новости

Новости СМИ2

Главная страница сайта

Новости сайта

03.07.2017

Напоминаем, что на нашем специализированном сайте Метеоцентр.Азия вы можете получить высокодетализированные автоматические прогнозы погоды по пунктам России, СНГ и мира в авиационном формате (включающие направление и скорость ветра, видимость, явления погоды, количество и форму облачности, нижнюю и верхнюю границу облачности).


Погода Кочубей - сегодня

Время (UTC), дата Ветер
(°,м/с) 
Видим.   Явления Облачность Т
(°С)
Тd
(°С)
f(%) Тe
(°С)
Pmin
(гПа)
dP
(гПа)
Po
(мм)
O2
(г/м3)
Тmin Tmax R s Состояние
почвы
21 20.02.18 080 (В) 4000 м  слаб. дождь  10/10 600 м 
[Frnb|Ns]
+2.3 +2 98 +2  1022.4  769  307           
00 21.02.18 080 (В) 4000 м  {дождь}  10/10 600 м 
[Sc]
+1.5 +0.8 95 1022.9  0.5  769  308           
03 21.02.18 080 (В) 4000 м    10/10 600 м 
[Sc]
+1.2 +0.4 94 1023.3  0.5  770  309  +1.2    0.9     
06 21.02.18 080 (В) 20000 м    10/10 600 м 
[Sc]
+1.5 +0.6 94 -1  1024.1  0.7  770  309  +1.1         
09 21.02.18 090 (В) 20000 м    10/10 600 м 
[Sc]
+2.5 +1 90 1023.7  -0.4  770  307           
12 21.02.18 090 (В) 20000 м    10/10 600 м 
[Sc]
+2.8 +0.8 87 -1  1022.8  -0.8  769  307           
15 21.02.18 080 (В) 4000 м    10/10 600 м 
[Sc]
+2 -0.1 86 -1  1023.2  0.4  770  308    +3       
18 21.02.18 080 (В) 4000 м    10/10 600 м 
[Sc]
+1.4 -0.2 89 -2  1023.3  0.1  770  309           
21 21.02.18 070 (В) 4000 м    10/10 600 м 
[Sc]
+1.2 -0.4 89 -2  1022.4  -0.9  769  309           
00 22.02.18 070 (В) 4000 м    10/10 600 м 
[Sc]
+0.5 -0.6 92 -3  1021.8  -0.6  768  309           
03 22.02.18 060 (СВ) 4000 м    10/10 600 м 
[Sc]
+0.5 -0.6 92 -2  1021.1  -0.7  768  309  +0.3         
06 22.02.18 060 (СВ) 20000 м    10/10 600 м 
[Sc]
+0.9 -0.1 93 -2  1021  -0.1  768  308           
09 22.02.18 060 (СВ) 20000 м    10/10 600 м 
[Sc]
+2.2 +0.7 90 -1  1019.9  -1.2  767  306           
12 22.02.18 060 (СВ) 20000 м    10/10 600 м 
[Sc]
+1.6 -0 89 -2  1019.3  -0.5  767  307           
15 22.02.18 060 (СВ) 4000 м    10/10 600 м 
[Sc]
+0.6 -0.5 92 -2  1019.7  0.4  767  308    +2.5       
18 22.02.18 050 (СВ) 4000 м  слаб. дождь  10/10 600 м 
[Frnb|Ns]
+0 -0.4 97 -3  1020.2  0.5  767  309           
21 22.02.18 050 (СВ) 4000 м  слаб. дождь  10/10 600 м 
[Frnb|Ns]
+0.2 -0.1 98 -3  1019.7  -0.5  767  309           
00 23.02.18 050 (СВ) 4000 м  слаб. дождь  10/10 600 м 
[Frnb|Ns]
-0.2 -0.5 98 -4  1019.4  -0.3  767  309           
03 23.02.18 060 (СВ) 4000 м  {дождь}  10/10 600 м 
[Frnb|Ns]
-0.3 -0.6 98 -3  1018.9  -0.4  766  309  -0.3    0.3     
06 23.02.18 060 (СВ) 20000 м  {дождь}  10/10 600 м 
[Sc]
+0.4 -0.1 96 -3  1019.1  0.2  766  308           
09 23.02.18 060 (СВ) 20000 м  {дождь}  10/10 600 м 
[Frnb|Ns]
+1.2 +0.5 95 -2  1018.1  -1.1  766  307           
12 23.02.18 060 (СВ) 6{11}  20000 м  {дождь}  10/10 600 м 
[Sc]
+1.5 +0.9 96 -2  1016.8  -1.2  765  306           
15 23.02.18 070 (В) 4000 м    10/10 600 м 
[Sc]
+2.1 +1.4 95 -1  1016.4  -0.4  764  305    +2.2  0.0     
18 23.02.18 080 (В) н/о    н/о 
+2.6 +1.8 94 1015.4  764  305           
21 23.02.18 080 (В) 4000 м    10/10 600 м 
[Sc]
+1.8 +1.5 98 -1  1013.8  -1.6  762  305           
Время (UTC), дата Ветер
(°,м/с) 
Видим.   Явления Облачность Т
(°С)
Тd
(°С)
f(%) Тe
(°С)
Pmin
(гПа)
dP
(гПа)
Po
(мм)
O2
(г/м3)
Тmin Tmax R s Состояние
почвы

Для получения пояснительной информации подведите курсор к названию столбца.

ПОГОДА Кочубей - архив

Всё, что Вы хотите узнать о погоде Кочубей - удобно и подробно!

Выберите нужную дату (начиная с 1 января 2015* года) и нажмите кнопку "Найти".
Будут отображены архивные сводки погоды по пункту Кочубей, начиная с указанной даты.


Отображать данные в формате CSV (для использования в таблицах Excel)


Внимание! Наш архив погоды предназначен исключительно для личного некоммерческого использования в познавательных целях. Если Вам необходимы официальные справки о состоянии погоды (для производственных, юридических, коммерческих и т.п. целей), обращайтесь в органы Росгидромета.

*Примечание: данная дата относится к архиву по метеостанциям СССР (Россия, СНГ, Балтия).
Архив по метеостанциям Зарубежной Европы и Азии (кроме Китая) хранится 10 дней, по другим регионам земного шара (Китай, Африка, Америка, Австралия, Океания) - 1 день.

Кочубей - район местоположения метеостанции


Название, широта, долгота, высота метеостанции:
Кочубей 44.4°ш. 46.6°д. -21 м над ур. моря [Российская Федерация]

Дополнительная информация

В oтличие oт бoльшинства пoгoдных сайтoв мы публикуем пoдрoбную метеoинфoрмацию в детальнoм прoфессиoнальнoм фoрмате.

Характеристики температуры и влажнoсти вoздуха измеряются на высoте 2 м в тени вдали oт зданий и деревьев.
Скoрoсть ветра измеряется на высoте 10 м (на урoвне рoста челoвека скoрoсть ветра ниже в 1.5-2 раза). Если метеoстанция нахoдится в гoрoде или в лесу, тo скoрoсть ветра занижена на 2-4 м/с пo сравнению с oткрытым местoм. Скoрoсть ветра над акватoриями крупных рек и oзёр, а также на вершинах хoлмoв на 2-5 м/с выше, чем в oбычных услoвиях.
Атмoсфернoе давление в разных тoчках местнoсти мoжет значительнo oтличаться oт давления на метеoстанции, в зависимoсти oт услoвий рельефа (при пoдъёме на 10 м давление пoнижается примернo на 1 мм рт.ст.).